Time,TemperatureF,DewpointF,PressureIn,WindDirection,WindDirectionDegrees,WindSpeedMPH,WindSpeedGustMPH,Humidity,HourlyPrecipIn,Conditions,Clouds,dailyrainin,SoftwareType,DateUTC
2013-02-23 00:03:00,31.0,26.0,30.22,SW,215,0.0,-999.0,80,-99.99,,,0.00,weatherlink.com 1.10,2013-02-23 05:03:00,
2013-02-23 00:18:00,31.0,26.0,30.21,SW,215,0.0,-999.0,80,-99.99,,,0.00,weatherlink.com 1.10,2013-02-23 05:18:00,
2013-02-23 00:33:00,30.8,25.0,30.21,SW,215,0.0,-999.0,79,-99.99,,,0.00,weatherlink.com 1.10,2013-02-23 05:33:00,
2013-02-23 00:48:00,30.9,25.0,30.21,SW,214,0.0,-999.0,80,-99.99,,,0.00,weatherlink.com 1.10,2013-02-23 05:48:00,
2013-02-23 01:03:00,30.7,25.0,30.21,SW,215,0.0,-999.0,80,-99.99,,,0.00,weatherlink.com 1.10,2013-02-23 06:03:00,
2013-02-23 01:18:00,30.5,25.0,30.20,SW,215,0.0,-999.0,80,-99.99,,,0.00,weatherlink.com 1.10,2013-02-23 06:18:00,
2013-02-23 01:33:00,30.3,25.0,30.20,SW,215,0.0,-999.0,81,-99.99,,,0.00,weatherlink.com 1.10,2013-02-23 06:33:00,
2013-02-23 01:48:00,30.1,26.0,30.20,SW,215,0.0,-999.0,83,-99.99,,,0.00,weatherlink.com 1.10,2013-02-23 06:48:00,
2013-02-23 02:03:00,29.7,26.0,30.19,SW,215,0.0,-999.0,85,-99.99,,,0.00,weatherlink.com 1.10,2013-02-23 07:03:00,
2013-02-23 02:18:00,29.6,25.0,30.18,SW,215,0.0,-999.0,84,-99.99,,,0.00,weatherlink.com 1.10,2013-02-23 07:18:00,
2013-02-23 02:33:00,29.7,26.0,30.18,SW,215,0.0,-999.0,85,-99.99,,,0.00,weatherlink.com 1.10,2013-02-23 07:33:00,
2013-02-23 02:48:00,29.7,25.0,30.18,SW,215,0.0,-999.0,84,-99.99,,,0.00,weatherlink.com 1.10,2013-02-23 07:48:00,
2013-02-23 03:03:00,29.9,26.0,30.18,SW,215,0.0,-999.0,84,-99.99,,,0.00,weatherlink.com 1.10,2013-02-23 08:03:00,
2013-02-23 03:18:00,29.9,25.0,30.18,SW,215,0.0,-999.0,83,-99.99,,,0.00,weatherlink.com 1.10,2013-02-23 08:18:00,
2013-02-23 03:33:00,29.9,26.0,30.17,SW,215,0.0,-999.0,84,-99.99,,,0.00,weatherlink.com 1.10,2013-02-23 08:33:00,
2013-02-23 03:48:00,29.9,26.0,30.17,SW,215,0.0,-999.0,85,-99.99,,,0.00,weatherlink.com 1.10,2013-02-23 08:48:00,
2013-02-23 04:03:00,30.1,26.0,30.16,SW,215,0.0,-999.0,85,-99.99,,,0.00,weatherlink.com 1.10,2013-02-23 09:03:00,
2013-02-23 04:18:00,29.8,26.0,30.16,SW,214,0.0,-999.0,85,-99.99,,,0.00,weatherlink.com 1.10,2013-02-23 09:18:00,
2013-02-23 04:33:00,29.7,26.0,30.16,SW,215,0.0,-999.0,85,-99.99,,,0.00,weatherlink.com 1.10,2013-02-23 09:33:00,
2013-02-23 04:48:00,29.7,25.0,30.16,SW,215,0.0,-999.0,84,-99.99,,,0.00,weatherlink.com 1.10,2013-02-23 09:48:00,
2013-02-23 05:03:00,29.7,25.0,30.16,SW,214,0.0,-999.0,83,-99.99,,,0.00,weatherlink.com 1.10,2013-02-23 10:03:00,
2013-02-23 05:18:00,29.8,25.0,30.15,SW,215,0.0,-999.0,83,-99.99,,,0.00,weatherlink.com 1.10,2013-02-23 10:18:00,
2013-02-23 05:33:00,29.9,26.0,30.15,SW,215,0.0,-999.0,84,-99.99,,,0.00,weatherlink.com 1.10,2013-02-23 10:33:00,
2013-02-23 05:48:00,30.1,26.0,30.15,SW,215,0.0,-999.0,83,-99.99,,,0.00,weatherlink.com 1.10,2013-02-23 10:48:00,
2013-02-23 06:03:00,30.4,26.0,30.14,SW,215,0.0,-999.0,85,-99.99,,,0.00,weatherlink.com 1.10,2013-02-23 11:03:00,
2013-02-23 06:18:00,30.3,26.0,30.15,SW,215,0.0,-999.0,85,-99.99,,,0.00,weatherlink.com 1.10,2013-02-23 11:18:00,
2013-02-23 06:33:00,30.1,26.0,30.15,SW,215,0.0,-999.0,85,-99.99,,,0.00,weatherlink.com 1.10,2013-02-23 11:33:00,
2013-02-23 06:48:00,30.1,26.0,30.14,SW,214,0.0,-999.0,84,-99.99,,,0.00,weatherlink.com 1.10,2013-02-23 11:48:00,
2013-02-23 07:03:00,30.2,26.0,30.14,SW,215,0.0,-999.0,84,-99.99,,,0.00,weatherlink.com 1.10,2013-02-23 12:03:00,
2013-02-23 07:18:00,30.4,26.0,30.14,SW,215,0.0,-999.0,85,-99.99,,,0.00,weatherlink.com 1.10,2013-02-23 12:18:00,
2013-02-23 07:33:00,30.8,27.0,30.13,SW,215,0.0,-999.0,84,-99.99,,,0.00,weatherlink.com 1.10,2013-02-23 12:33:00,
2013-02-23 07:48:00,31.2,27.0,30.13,SW,215,0.0,-999.0,83,-99.99,,,0.00,weatherlink.com 1.10,2013-02-23 12:48:00,
2013-02-23 08:03:00,31.5,27.0,30.13,SW,215,0.0,-999.0,84,-99.99,,,0.00,weatherlink.com 1.10,2013-02-23 13:03:00,
2013-02-23 08:18:00,32.1,28.0,30.13,SW,214,0.0,-999.0,84,-99.99,,,0.00,weatherlink.com 1.10,2013-02-23 13:18:00,
2013-02-23 08:33:00,32.7,28.0,30.13,SW,215,0.0,-999.0,83,-99.99,,,0.00,weatherlink.com 1.10,2013-02-23 13:33:00,
2013-02-23 08:48:00,33.2,28.0,30.13,SW,214,0.0,-999.0,82,-99.99,,,0.00,weatherlink.com 1.10,2013-02-23 13:48:00,
2013-02-23 09:03:00,33.9,29.0,30.13,SW,214,0.0,-999.0,82,-99.99,,,0.00,weatherlink.com 1.10,2013-02-23 14:03:00,
2013-02-23 09:18:00,35.1,30.0,30.12,SSW,194,0.0,-999.0,81,-99.99,,,0.00,weatherlink.com 1.10,2013-02-23 14:18:00,
2013-02-23 09:33:00,36.3,30.0,30.11,SE,135,0.0,-999.0,77,-99.99,,,0.00,weatherlink.com 1.10,2013-02-23 14:33:00,
2013-02-23 09:48:00,37.3,30.0,30.11,SW,221,0.0,-999.0,75,-99.99,,,0.00,weatherlink.com 1.10,2013-02-23 14:48:00,
2013-02-23 10:03:00,37.7,30.0,30.11,West,275,0.0,-999.0,74,-99.99,,,0.00,weatherlink.com 1.10,2013-02-23 15:03:00,
2013-02-23 10:18:00,37.5,30.0,30.10,WSW,250,1.0,-999.0,74,-99.99,,,0.00,weatherlink.com 1.10,2013-02-23 15:18:00,
2013-02-23 10:33:00,37.6,30.0,30.10,West,265,0.0,-999.0,74,-99.99,,,0.00,weatherlink.com 1.10,2013-02-23 15:33:00,
2013-02-23 10:48:00,38.0,30.0,30.10,NW,304,0.0,-999.0,73,-99.99,,,0.00,weatherlink.com 1.10,2013-02-23 15:48:00,
2013-02-23 11:03:00,38.1,30.0,30.09,West,279,0.0,-999.0,72,-99.99,,,0.00,weatherlink.com 1.10,2013-02-23 16:03:00,
2013-02-23 11:18:00,38.0,30.0,30.09,East,87,3.0,-999.0,72,-99.99,,,0.00,weatherlink.com 1.10,2013-02-23 16:18:00,
2013-02-23 11:33:00,37.8,30.0,30.08,ESE,108,4.0,-999.0,72,-99.99,,,0.00,weatherlink.com 1.10,2013-02-23 16:33:00,
2013-02-23 11:48:00,38.0,30.0,30.07,South,182,0.0,-999.0,72,-99.99,,,0.00,weatherlink.com 1.10,2013-02-23 16:48:00,
2013-02-23 12:03:00,38.3,30.0,30.05,SSE,154,0.0,-999.0,72,-99.99,,,0.00,weatherlink.com 1.10,2013-02-23 17:03:00,
2013-02-23 12:18:00,38.3,30.0,30.05,West,264,2.0,-999.0,71,-99.99,,,0.00,weatherlink.com 1.10,2013-02-23 17:18:00,
2013-02-23 12:33:00,38.2,30.0,30.04,East,98,0.0,-999.0,72,-99.99,,,0.00,weatherlink.com 1.10,2013-02-23 17:33:00,
2013-02-23 12:48:00,38.2,30.0,30.04,WSW,237,0.0,-999.0,72,-99.99,,,0.00,weatherlink.com 1.10,2013-02-23 17:48:00,
2013-02-23 13:03:00,38.4,30.0,30.03,East,92,1.0,-999.0,72,-99.99,,,0.00,weatherlink.com 1.10,2013-02-23 18:03:00,
2013-02-23 13:18:00,38.7,31.0,30.03,WSW,245,0.0,-999.0,73,-99.99,,,0.00,weatherlink.com 1.10,2013-02-23 18:18:00,
2013-02-23 13:33:00,38.5,32.0,30.03,SE,129,0.0,-999.0,76,-99.99,,,0.00,weatherlink.com 1.10,2013-02-23 18:33:00,
2013-02-23 13:48:00,38.1,32.0,30.03,SE,141,0.0,-999.0,78,-99.99,,,0.00,weatherlink.com 1.10,2013-02-23 18:48:00,
2013-02-23 14:03:00,38.1,32.0,30.02,ESE,112,0.0,-999.0,78,-99.99,,,0.00,weatherlink.com 1.10,2013-02-23 19:03:00,
2013-02-23 14:18:00,37.6,32.0,30.03,SSE,147,0.0,-999.0,81,-99.99,,,0.00,weatherlink.com 1.10,2013-02-23 19:18:00,
2013-02-23 14:33:00,37.1,32.0,30.02,SSW,192,0.0,-999.0,82,-99.99,,,0.00,weatherlink.com 1.10,2013-02-23 19:33:00,
2013-02-23 14:48:00,37.1,32.0,30.01,ESE,103,0.0,-999.0,82,-99.99,,,0.00,weatherlink.com 1.10,2013-02-23 19:48:00,
2013-02-23 15:03:00,37.4,32.0,30.01,SW,232,0.0,-999.0,81,-99.99,,,0.00,weatherlink.com 1.10,2013-02-23 20:03:00,
2013-02-23 15:18:00,36.9,33.0,30.01,East,92,0.0,-999.0,84,-99.99,,,0.00,weatherlink.com 1.10,2013-02-23 20:18:00,
2013-02-23 15:33:00,36.3,33.0,30.00,SSW,196,0.0,-999.0,87,-99.99,,,0.00,weatherlink.com 1.10,2013-02-23 20:33:00,
2013-02-23 15:48:00,36.1,33.0,30.00,West,259,0.0,-999.0,88,-99.99,,,0.00,weatherlink.com 1.10,2013-02-23 20:48:00,
2013-02-23 16:03:00,36.0,33.0,29.99,South,171,0.0,-999.0,89,-99.99,,,0.00,weatherlink.com 1.10,2013-02-23 21:03:00,
2013-02-23 16:18:00,35.9,33.0,29.98,SSW,195,0.0,-999.0,89,-99.99,,,0.00,weatherlink.com 1.10,2013-02-23 21:18:00,
2013-02-23 16:33:00,35.8,33.0,29.98,WNW,294,0.0,-999.0,88,-99.99,,,0.00,weatherlink.com 1.10,2013-02-23 21:33:00,
2013-02-23 16:48:00,35.9,32.0,29.98,NW,325,0.0,-999.0,85,-99.99,,,0.00,weatherlink.com 1.10,2013-02-23 21:48:00,
2013-02-23 17:03:00,36.1,32.0,29.98,WSW,239,2.0,-999.0,84,-99.99,,,0.00,weatherlink.com 1.10,2013-02-23 22:03:00,
2013-02-23 17:18:00,36.0,32.0,29.98,SE,128,0.0,-999.0,84,-99.99,,,0.00,weatherlink.com 1.10,2013-02-23 22:18:00,
2013-02-23 17:33:00,35.9,32.0,29.97,WSW,247,0.0,-999.0,84,-99.99,,,0.00,weatherlink.com 1.10,2013-02-23 22:33:00,
2013-02-23 17:48:00,36.1,32.0,29.96,SE,138,0.0,-999.0,84,-99.99,,,0.00,weatherlink.com 1.10,2013-02-23 22:48:00,
2013-02-23 18:03:00,36.2,32.0,29.97,WNW,296,0.0,-999.0,84,-99.99,,,0.00,weatherlink.com 1.10,2013-02-23 23:03:00,
2013-02-23 18:18:00,36.2,32.0,29.95,SSE,164,0.0,-999.0,83,-99.99,,,0.00,weatherlink.com 1.10,2013-02-23 23:18:00,
2013-02-23 18:33:00,36.2,32.0,29.95,SSE,165,1.0,-999.0,84,-99.99,,,0.00,weatherlink.com 1.10,2013-02-23 23:33:00,
2013-02-23 18:48:00,36.0,32.0,29.95,West,281,0.0,-999.0,85,-99.99,,,0.00,weatherlink.com 1.10,2013-02-23 23:48:00,
2013-02-23 19:03:00,35.7,32.0,29.94,West,261,0.0,-999.0,85,-99.99,,,0.00,weatherlink.com 1.10,2013-02-24 00:03:00,
2013-02-23 19:18:00,35.8,32.0,29.94,North,355,0.0,-999.0,85,-99.99,,,0.00,weatherlink.com 1.10,2013-02-24 00:18:00,
2013-02-23 19:33:00,35.7,32.0,29.93,SE,135,0.0,-999.0,85,-99.99,,,0.00,weatherlink.com 1.10,2013-02-24 00:33:00,
2013-02-23 19:48:00,35.6,32.0,29.93,ENE,66,4.0,-999.0,86,-99.99,,,0.01,weatherlink.com 1.10,2013-02-24 00:48:00,
2013-02-23 20:03:00,35.3,32.0,29.93,WSW,248,0.0,-999.0,88,-99.99,,,0.01,weatherlink.com 1.10,2013-02-24 01:03:00,
2013-02-23 20:18:00,35.3,32.0,29.92,WSW,247,0.0,-999.0,89,-99.99,,,0.01,weatherlink.com 1.10,2013-02-24 01:18:00,
2013-02-23 20:33:00,35.1,33.0,29.92,WSW,247,0.0,-999.0,91,-99.99,,,0.01,weatherlink.com 1.10,2013-02-24 01:33:00,
2013-02-23 20:48:00,34.8,33.0,29.91,WSW,247,0.0,-999.0,91,-99.99,,,0.01,weatherlink.com 1.10,2013-02-24 01:48:00,
2013-02-23 21:03:00,34.6,33.0,29.91,WSW,247,0.0,-999.0,92,-99.99,,,0.01,weatherlink.com 1.10,2013-02-24 02:03:00,
2013-02-23 21:18:00,34.4,32.0,29.90,WSW,247,0.0,-999.0,92,-99.99,,,0.01,weatherlink.com 1.10,2013-02-24 02:18:00,
2013-02-23 21:33:00,34.3,33.0,29.88,SSE,158,0.0,-999.0,93,-99.99,,,0.01,weatherlink.com 1.10,2013-02-24 02:33:00,
2013-02-23 21:48:00,34.6,33.0,29.88,SSW,202,0.0,-999.0,94,-99.99,,,0.01,weatherlink.com 1.10,2013-02-24 02:48:00,
2013-02-23 22:03:00,35.1,34.0,29.88,SSE,163,0.0,-999.0,94,-99.99,,,0.02,weatherlink.com 1.10,2013-02-24 03:03:00,
2013-02-23 22:18:00,34.8,33.0,29.88,West,269,0.0,-999.0,94,-99.99,,,0.02,weatherlink.com 1.10,2013-02-24 03:18:00,
2013-02-23 22:33:00,34.5,33.0,29.87,West,269,0.0,-999.0,94,-99.99,,,0.02,weatherlink.com 1.10,2013-02-24 03:33:00,
2013-02-23 22:48:00,34.7,33.0,29.87,West,269,0.0,-999.0,94,-99.99,,,0.02,weatherlink.com 1.10,2013-02-24 03:48:00,
2013-02-23 23:03:00,34.5,33.0,29.86,West,269,0.0,-999.0,94,-99.99,,,0.02,weatherlink.com 1.10,2013-02-24 04:03:00,
2013-02-23 23:18:00,34.0,33.0,29.85,West,269,0.0,-999.0,94,-99.99,,,0.03,weatherlink.com 1.10,2013-02-24 04:18:00,
2013-02-23 23:33:00,34.0,33.0,29.85,West,269,0.0,-999.0,94,-99.99,,,0.04,weatherlink.com 1.10,2013-02-24 04:33:00,
2013-02-23 23:48:00,33.9,32.0,29.84,West,269,0.0,-999.0,94,-99.99,,,0.04,weatherlink.com 1.10,2013-02-24 04:48:00,